Location: Tel Aviv
(32.0670°N, 34.7670°E)
Time: 12:53:49
(UTC+02:00)

Tiros 1 - All Passes

Search period start: 19 January 2022 00:00
Search period end: 29 January 2022 00:00
Orbit: 629 x 664 km, 48.4° (Epoch: 19 January)

Date Brightness Start Highest point End Pass type
(mag) Time Alt. Az. Time Alt. Az. Time Alt. Az.
19 Jan - 01:34:42 10° WNW 01:38:22 21° NNW 01:42:02 10° NNE night (unlit)
19 Jan - 03:20:54 10° NNW 03:22:03 11° N 03:23:12 10° N visible
19 Jan - 05:03:12 10° NNW 05:05:57 15° NNE 05:08:41 10° NE visible
19 Jan - 06:44:26 10° NW 06:49:01 50° NE 06:53:31 10° ESE daylight
19 Jan - 08:27:14 10° WNW 08:30:56 23° SW 08:34:35 10° S daylight
19 Jan - 22:35:23 10° SSW 22:39:36 31° SE 22:43:49 10° ENE night (unlit)
20 Jan - 00:17:08 10° WSW 00:21:42 42° NNW 00:26:14 10° NE night (unlit)
20 Jan - 02:02:22 10° NW 02:04:53 14° NNW 02:07:22 10° NNE night (unlit)
20 Jan - 03:47:26 10° N 03:48:48 11° N 03:50:11 10° NNE visible
20 Jan - 05:28:34 10° NNW 05:32:24 24° NNE 05:36:12 10° E visible
20 Jan - 07:10:15 10° NW 07:14:54 68° SW 07:19:31 10° SE daylight
20 Jan - 21:23:01 10° SE 21:23:43 10° SE 21:24:27 10° ESE night (unlit)
20 Jan - 23:00:31 10° SW 23:05:19 79° SE 23:10:07 10° NE night (unlit)
21 Jan - 00:44:07 10° WNW 00:47:55 23° NNW 00:51:42 10° NNE night (unlit)
21 Jan - 02:30:16 10° NNW 02:31:34 11° N 02:32:51 10° N night (unlit)
21 Jan - 04:12:51 10° NNW 04:15:29 14° NNE 04:18:05 10° NE visible
21 Jan - 05:54:03 10° NW 05:58:36 46° NE 06:03:05 10° ESE visible
21 Jan - 07:36:42 10° WNW 07:40:34 26° SW 07:44:25 10° S daylight
21 Jan - 21:45:09 10° S 21:49:14 28° SE 21:53:18 10° ENE night (unlit)
21 Jan - 23:26:39 10° WSW 23:31:15 46° NW 23:35:52 10° NE night (unlit)
22 Jan - 01:11:44 10° NW 01:14:23 15° NNW 01:17:03 10° NNE night (unlit)
22 Jan - 02:57:01 10° N 02:58:19 11° N 02:59:37 10° NNE visible
22 Jan - 04:38:12 10° NNW 04:41:57 23° NNE 04:45:40 10° ENE visible
22 Jan - 06:19:49 10° NW 06:24:32 76° SW 06:29:10 10° SE daylight
22 Jan - 22:10:08 10° SW 22:14:55 71° SE 22:19:42 10° NE night (unlit)
22 Jan - 23:53:33 10° W 23:57:27 24° NNW 00:01:21 10° NNE night (unlit)
23 Jan - 01:39:37 10° NNW 01:41:04 11° N 01:42:30 10° NNE night (unlit)
23 Jan - 03:22:29 10° NNW 03:25:00 14° NNE 03:27:29 10° NE visible
23 Jan - 05:03:40 10° NW 05:08:10 42° NNE 05:12:37 10° ESE visible
23 Jan - 06:46:10 10° WNW 06:50:13 29° SW 06:54:13 10° SSE daylight
23 Jan - 20:54:56 10° S 20:58:51 25° SE 21:02:47 10° ENE night (unlit)
23 Jan - 22:36:10 10° WSW 22:40:50 50° NW 22:45:30 10° NE night (unlit)
24 Jan - 00:21:05 10° NW 00:23:54 15° NNW 00:26:43 10° NNE night (unlit)
24 Jan - 02:06:34 10° NNW 02:07:48 11° N 02:09:03 10° NNE night (unlit)
24 Jan - 03:47:50 10° NNW 03:51:30 21° NNE 03:55:07 10° ENE visible
24 Jan - 05:29:24 10° NW 05:34:08 84° SW 05:38:48 10° SE visible
24 Jan - 07:14:40 10° WSW 07:15:43 11° SW 07:16:45 10° SW daylight
24 Jan - 21:19:46 10° SW 21:24:30 64° SE 21:29:16 10° NE night (unlit)
24 Jan - 23:02:59 10° W 23:07:00 26° NNW 23:11:00 10° NNE night (unlit)
25 Jan - 00:48:58 10° NNW 00:50:33 11° N 00:52:09 10° NNE night (unlit)
25 Jan - 02:32:08 10° NNW 02:34:30 14° NNE 02:36:53 10° NE night (unlit)
25 Jan - 04:13:17 10° NW 04:17:45 39° NNE 04:22:09 10° ESE visible
25 Jan - 05:55:39 10° WNW 05:59:51 32° SW 06:04:00 10° SSE visible
25 Jan - 20:04:45 10° S 20:08:29 23° SE 20:12:13 10° ENE night (unlit)
25 Jan - 21:45:42 10° WSW 21:50:24 54° NW 21:55:07 10° NE night (unlit)
25 Jan - 23:30:28 10° WNW 23:33:25 16° NNW 23:36:23 10° NNE night (unlit)
26 Jan - 01:16:06 10° NNW 01:17:18 11° N 01:18:30 10° NNE night (unlit)
26 Jan - 02:57:28 10° NNW 03:01:03 20° NNE 03:04:34 10° ENE visible
26 Jan - 04:38:59 10° NW 04:43:44 88° NE 04:48:25 10° SE visible
26 Jan - 06:23:30 10° WSW 06:25:21 12° SW 06:27:13 10° SSW daylight
26 Jan - 20:29:25 10° SW 20:34:07 58° SE 20:38:50 10° ENE night (unlit)
26 Jan - 22:12:26 10° W 22:16:32 27° NNW 22:20:39 10° NNE night (unlit)
26 Jan - 23:58:19 10° NNW 00:00:03 12° N 00:01:48 10° NNE night (unlit)
27 Jan - 01:41:45 10° NNW 01:44:01 13° NNE 01:46:17 10° NE night (unlit)
27 Jan - 03:22:54 10° NW 03:27:19 36° NNE 03:31:40 10° E visible
27 Jan - 05:05:09 10° WNW 05:09:29 36° SW 05:13:45 10° SSE visible
27 Jan - 19:14:36 10° S 19:18:06 20° SE 19:21:38 10° E visible
27 Jan - 20:55:14 10° WSW 20:59:58 60° NW 21:04:44 10° NE night (unlit)
27 Jan - 22:39:50 10° WNW 22:42:56 17° NNW 22:46:02 10° NNE night (unlit)
28 Jan - 00:25:37 10° NNW 00:26:48 11° N 00:27:59 10° NNE night (unlit)
28 Jan - 02:07:06 10° NNW 02:10:34 19° NNE 02:14:00 10° ENE night (unlit)
28 Jan - 03:48:34 10° NW 03:53:20 81° NE 03:58:03 10° SE visible
28 Jan - 05:32:36 10° W 05:35:01 14° SW 05:37:23 10° SSW visible
28 Jan - 19:39:05 10° SSW 19:43:43 52° SE 19:48:23 10° ENE visible
28 Jan - 21:21:53 10° W 21:26:05 29° NNW 21:30:17 10° NNE night (unlit)
28 Jan - 23:07:39 10° NNW 23:09:33 12° N 23:11:26 10° NNE night (unlit)
